When you browse on this site, cookies collect data to enhance your experience and personalize the content and advertising you see.
Visit our Privacy Policy to learn more. By continuing to use the site, you agree to this use of cookies and data.
  • In Portugal
  • List of Countries
  • For 7 days
  • Water Temperature
  • Satellite Maps
  • Weather Map
  • Weather Widgets
  • user-avatar
    Login

    Hourly Weather Sveti Vlas

    Today, 17 February, Sunday

    Time Temperature Precipitation Wind Pressure Humidity
    00:00 +4°C° 0 mm 2 mps 765 mmHg 75%
    01:00 +4°C° 0 mm 2 mps 765 mmHg 75%
    02:00 +3°C° 0 mm 2 mps 765 mmHg 76%
    03:00 +3°C° 0 mm 2 mps 765 mmHg 75%
    04:00 +3°C° 0 mm 2 mps 764 mmHg 75%
    05:00 +3°C° 0 mm 2 mps 764 mmHg 74%
    06:00 +3°C° 0 mm 2 mps 764 mmHg 73%
    07:00 +3°C° 0 mm 2 mps 764 mmHg 73%
    08:00 +3°C° 0 mm 2 mps 764 mmHg 72%
    09:00 +5°C° 0 mm 2 mps 764 mmHg 65%
    10:00 +7°C° 0 mm 2 mps 764 mmHg 59%
    11:00 +9°C° 0 mm 2 mps 764 mmHg 52%
    12:00 +10°C° 0 mm 2 mps 764 mmHg 49%
    13:00 +12°C° 0 mm 1 mps 763 mmHg 47%
    14:00 +13°C° 0 mm 1 mps 763 mmHg 44%
    15:00 +13°C° 0 mm 1 mps 763 mmHg 47%
    16:00 +12°C° 0 mm 1 mps 762 mmHg 50%
    17:00 +12°C° 0 mm 1 mps 762 mmHg 53%
    18:00 +11°C° 0 mm 1 mps 762 mmHg 56%
    19:00 +9°C° 0 mm 2 mps 762 mmHg 59%
    20:00 +8°C° 0 mm 2 mps 762 mmHg 62%
    21:00 +8°C° 0 mm 2 mps 762 mmHg 63%
    22:00 +7°C° 0 mm 2 mps 762 mmHg 64%
    23:00 +7°C° 0 mm 2 mps 762 mmHg 65%

    Tomorrow, 18 February, Monday

    Time Temperature Precipitation Wind Pressure Humidity
    00:00 +7°C° 0 mm 2 mps 762 mmHg 65%
    01:00 +7°C° 0 mm 2 mps 762 mmHg 64%
    02:00 +6°C° 0 mm 2 mps 762 mmHg 64%
    03:00 +6°C° 0 mm 2 mps 762 mmHg 63%
    04:00 +6°C° 0 mm 2 mps 761 mmHg 63%
    05:00 +5°C° 0 mm 3 mps 761 mmHg 62%
    06:00 +5°C° 0 mm 3 mps 761 mmHg 63%
    07:00 +5°C° 0 mm 3 mps 761 mmHg 64%
    08:00 +5°C° 0 mm 3 mps 762 mmHg 66%
    09:00 +7°C° 0 mm 2 mps 762 mmHg 62%
    10:00 +9°C° 0 mm 2 mps 762 mmHg 58%
    11:00 +12°C° 0 mm 2 mps 762 mmHg 54%
    12:00 +13°C° 0 mm 2 mps 762 mmHg 51%
    13:00 +14°C° 0 mm 1 mps 762 mmHg 48%
    14:00 +15°C° 0 mm 1 mps 762 mmHg 44%
    15:00 +14°C° 0 mm 2 mps 761 mmHg 49%
    16:00 +13°C° 0 mm 2 mps 761 mmHg 53%
    17:00 +12°C° 0 mm 2 mps 761 mmHg 57%
    18:00 +10°C° 0 mm 2 mps 761 mmHg 64%
    19:00 +9°C° 0 mm 2 mps 761 mmHg 71%
    20:00 +8°C° 0 mm 2 mps 762 mmHg 77%
    21:00 +8°C° 0 mm 2 mps 762 mmHg 80%
    22:00 +7°C° 0 mm 2 mps 762 mmHg 82%
    23:00 +8°C° 0 mm 1 mps 762 mmHg 85%

    Day after tomorrow, 19 February, Tuesday

    Time Temperature Precipitation Wind Pressure Humidity
    00:00 +8°C° 0 mm 1 mps 762 mmHg 86%
    01:00 +7°C° 0 mm 1 mps 762 mmHg 87%
    02:00 +7°C° 0 mm 1 mps 762 mmHg 89%
    03:00 +7°C° 0 mm 1 mps 762 mmHg 89%
    04:00 +7°C° 0 mm 1 mps 762 mmHg 90%
    05:00 +7°C° 0 mm 1 mps 762 mmHg 90%
    06:00 +7°C° 0 mm 1 mps 762 mmHg 90%
    07:00 +6°C° 0 mm 2 mps 762 mmHg 91%
    08:00 +6°C° 0 mm 2 mps 762 mmHg 91%
    09:00 +8°C° 0 mm 2 mps 762 mmHg 84%
    10:00 +9°C° 0 mm 3 mps 763 mmHg 77%
    11:00 +11°C° 0 mm 3 mps 763 mmHg 71%
    12:00 +11°C° 0 mm 3 mps 762 mmHg 68%
    13:00 +11°C° 0 mm 4 mps 762 mmHg 66%
    14:00 +12°C° 0 mm 4 mps 762 mmHg 63%
    15:00 +11°C° 0 mm 4 mps 761 mmHg 68%
    16:00 +11°C° 0 mm 4 mps 761 mmHg 72%
    17:00 +10°C° 0 mm 4 mps 761 mmHg 76%
    18:00 +8°C° 0 mm 4 mps 761 mmHg 81%
    19:00 +8°C° 0 mm 4 mps 761 mmHg 86%
    20:00 +7°C° 0 mm 4 mps 761 mmHg 90%
    21:00 +7°C° 0 mm 4 mps 761 mmHg 90%
    22:00 +6°C° 0 mm 4 mps 761 mmHg 91%
    23:00 +7°C° 0 mm 3 mps 761 mmHg 91%

    20 February, Wednesday

    Time Temperature Precipitation Wind Pressure Humidity
    00:00 +7°C° 0 mm 3 mps 761 mmHg 91%
    01:00 +7°C° 0 mm 3 mps 760 mmHg 91%
    02:00 +7°C° 0 mm 3 mps 760 mmHg 91%
    03:00 +6°C° 0 mm 2 mps 760 mmHg 90%
    04:00 +6°C° 0 mm 2 mps 760 mmHg 90%
    05:00 +6°C° 0 mm 2 mps 760 mmHg 89%
    06:00 +6°C° 0 mm 2 mps 760 mmHg 88%
    07:00 +6°C° 0 mm 2 mps 760 mmHg 86%
    08:00 +6°C° 0 mm 2 mps 760 mmHg 85%
    09:00 +8°C° 0 mm 3 mps 760 mmHg 77%
    10:00 +10°C° 0 mm 3 mps 760 mmHg 69%
    11:00 +12°C° 0 mm 3 mps 760 mmHg 61%
    12:00 +13°C° 0 mm 3 mps 759 mmHg 54%
    13:00 +15°C° 0 mm 2 mps 759 mmHg 48%
    14:00 +16°C° 0 mm 2 mps 759 mmHg 41%
    15:00 +16°C° 0 mm 2 mps 759 mmHg 44%
    16:00 +15°C° 0 mm 2 mps 759 mmHg 46%
    17:00 +15°C° 0 mm 2 mps 759 mmHg 48%
    18:00 +14°C° 0 mm 2 mps 759 mmHg 51%
    19:00 +13°C° 0 mm 2 mps 760 mmHg 54%
    20:00 +10°C° 0 mm 2 mps 760 mmHg 56%
    21:00 +10°C° 0 mm 2 mps 760 mmHg 59%
    22:00 +9°C° 0 mm 3 mps 760 mmHg 62%
    23:00 +9°C° 0 mm 3 mps 761 mmHg 65%

    21 February, Thursday

    Time Temperature Precipitation Wind Pressure Humidity
    00:00 +8°C° 0 mm 3 mps 761 mmHg 68%
    01:00 +8°C° 0 mm 3 mps 761 mmHg 71%
    02:00 +7°C° 0 mm 3 mps 761 mmHg 74%
    03:00 +7°C° 0 mm 3 mps 761 mmHg 75%
    04:00 +7°C° 0 mm 3 mps 761 mmHg 77%
    05:00 +6°C° 0 mm 2 mps 761 mmHg 78%
    06:00 +6°C° 0 mm 2 mps 762 mmHg 78%
    07:00 +7°C° 0 mm 2 mps 762 mmHg 77%
    08:00 +7°C° 0 mm 2 mps 762 mmHg 77%
    09:00 +8°C° 0 mm 2 mps 762 mmHg 69%
    10:00 +10°C° 0 mm 1 mps 763 mmHg 62%
    11:00 +12°C° 0 mm 1 mps 763 mmHg 54%
    12:00 +13°C° 0 mm 1 mps 762 mmHg 51%
    13:00 +13°C° 0 mm 1 mps 762 mmHg 48%
    14:00 +14°C° 0 mm 1 mps 762 mmHg 45%
    15:00 +14°C° 0 mm 2 mps 761 mmHg 48%
    16:00 +13°C° 0 mm 2 mps 761 mmHg 51%
    17:00 +12°C° 0 mm 3 mps 761 mmHg 55%
    18:00 +11°C° 0 mm 3 mps 761 mmHg 60%
    19:00 +10°C° 0 mm 2 mps 761 mmHg 65%
    20:00 +9°C° 0 mm 2 mps 761 mmHg 70%
    21:00 +8°C° 0 mm 2 mps 762 mmHg 68%
    22:00 +8°C° 0 mm 2 mps 762 mmHg 67%
    23:00 +8°C° 0 mm 2 mps 762 mmHg 66%

    22 February, Friday

    Time Temperature Precipitation Wind Pressure Humidity
    00:00 +7°C° 0 mm 2 mps 761 mmHg 66%
    01:00 +7°C° 0 mm 3 mps 761 mmHg 67%
    02:00 +7°C° 0 mm 3 mps 761 mmHg 68%
    03:00 +7°C° 0 mm 3 mps 761 mmHg 69%
    04:00 +7°C° 0 mm 2 mps 761 mmHg 71%
    05:00 +7°C° 0 mm 2 mps 760 mmHg 72%
    06:00 +7°C° 0 mm 2 mps 760 mmHg 72%
    07:00 +7°C° 0 mm 2 mps 760 mmHg 71%
    08:00 +7°C° 0 mm 2 mps 760 mmHg 71%
    09:00 +8°C° 0 mm 2 mps 760 mmHg 67%
    10:00 +9°C° 0 mm 2 mps 759 mmHg 63%
    11:00 +10°C° 0 mm 2 mps 759 mmHg 59%
    12:00 +11°C° 0.2 mm 1 mps 758 mmHg 60%
    13:00 +11°C° 0.2 mm 1 mps 758 mmHg 62%
    14:00 +11°C° 0.2 mm 1 mps 757 mmHg 63%
    15:00 +11°C° 0.2 mm 1 mps 757 mmHg 66%
    16:00 +10°C° 0.2 mm 1 mps 757 mmHg 68%
    17:00 +10°C° 0.2 mm 1 mps 756 mmHg 71%
    18:00 +10°C° 0.1 mm 1 mps 756 mmHg 74%
    19:00 +8°C° 0.1 mm 2 mps 756 mmHg 77%
    20:00 +8°C° 0.1 mm 2 mps 756 mmHg 80%
    21:00 +8°C° 0 mm 2 mps 756 mmHg 81%
    22:00 +9°C° 0 mm 1 mps 756 mmHg 82%
    23:00 +9°C° 0 mm 1 mps 756 mmHg 83%
    Show more